SCP
0 0 0 0 0 0 0 0 0 0 0 -0 -0 -0 -0 -0 -0 -0 0 -0 0 0 0 0 0 0 0 0 -0 -0 0 -0 0 0 -0 0 0 0 0 0 0 0 0 -0 -0
0 0 0 0 0 0 0 0 0 0 0 0 -0 -0 -0 -0 -0 -0 -0 -0 -0 0 0 0 0 0 0 0 0 -0 0 0 0 0 0 0 0 0 0 0 0 0 -0 -0 -0
0 0 0 0 0 0 0 0 0 0 0 0 0 0 0 0 -0 0 -0 -0 -0 0 0 0 0 0 0 0 -0 -0 0 0 0 -0 0 0 0 0 0 0 0 0 -0 -0 -0
0 0 0 0 0 0 0 0 0 0 0 0 0 0 -0 -0 0 0 0 0 0 0 -0 0 0 0 0 -0 -0 0 0 0 0 0 0 0 0 0 0 0 0 -0 -0 -0 -0
0 0 0 0 0 0 0 0 0 0 0 0 0 0 0 0 0 0 0 0 0 0 0 0 0 0 0 0 0 0 -0 0 0 0 0 0 0 0 0 -0 0 -0 -0 -0 -0
0 0 0 0 0 0 0 0 0 0 0 0 0 0 0 -0 0 0 0 0 0 0 0 0 0 -0 0 0 -0 0 0 0 0 0 0 0 0 0 0 0 0 -0 0 -0 -0
0 0 0 0 0 0 0 0 0 0 0 0 0 0 0 -0 0 0 0 0 0 0 0 0 0 0 -0 0 0 -0 0 0 -0 -0 0 0 0 0 -0 0 -0 0 0 0 0
0 0 0 0 0 0 0 0 0 0 0 0 0 0 -0 0 0 0 0 0 0 0 0 -0 0 0 -0 0 -0 -0 -0 0 -0 0 0 0 0 0 -0 -0 -0 0 0 0 0
0 0 0 0 0 0 0 0 0 0 0 0 0 0 0 0 0 0 0 0 0 0 0 0 0 0 0 -0 -0 -0 -0 0 0 0 0 0 0 -0 -1 -0 -0 -0 -0 0 -0
0 0 0 0 0 0 0 0 0 0 0 0 0 0 0 0 0 0 0 0 0 0 0 0 0 -0 -0 -0 0 0 0 0 -0 0 0 0 0 0 -1 -1 -1 -0 -0 0 0
0 0 0 0 0 0 0 0 0 0 0 -0 0 0 0 0 0 0 0 0 0 0 0 0 0 0 -0 0 -0 -0 0 0 0 0 0 0 0 -0 -0 -0 -0 -0 -0 -0 -0
0 0 0 0 0 0 0 0 0 0 0 -0 0 0 0 0 0 0 0 0 0 0 0 0 0 -0 0 -0 0 0 0 0 0 0 0 0 -0 -0 0 0 0 -0 -0 -0 -0
0 0 0 0 0 0 0 0 0 0 0 0 0 0 0 0 0 0 0 0 0 0 0 -0 0 0 -0 0 0 0 0 0 0 0 0 0 -0 -0 0 0 0 0 0 0 0
0 0 0 0 0 0 0 0 0 0 0 0 0 -0 0 0 0 0 0 0 0 0 0 0 0 -0 -0 0 -0 0 0 0 0 0 -0 0 -0 -0 0 0 0 0 0 -1 0
-0 0 0 0 0 0 0 0 -0 0 0 0 0 0 0 -0 0 -0 0 0 0 0 0 0 0 0 0 0 0 -0 -0 -0 -0 0 0 0 0 0 0 0 0 0 0 -0 -0
0 0 0 0 0 0 0 0 0 0 0 0 0 0 -0 -0 -0 0 0 -0 -0 0 0 0 0 0 0 0 0 0 0 -0 -0 0 0 0 0 0 0 0 0 0 -0 -0 -0
-0 0 0 0 0 0 0 0 0 0 -0 -0 0 0 -0 0 0 0 -0 0 0 0 0 0 -0 0 -0 0 -0 -0 0 0 -0 -0 0 0 0 0 0 0 0 0 -0 -0 -0
-0 0 0 0 0 0 0 0 0 0 -0 -0 -0 0 -0 0 0 -0 0 0 0 0 0 0 0 0 0 -0 -0 -0 0 0 0 0 0 0 0 0 0 0 0 0 0 0 0
0 0 0 0 0 0 0 -0 0 0 0 0 0 -0 -0 -0 -0 0 0 0 0 0 -0 -0 0 -0 -0 -0 -0 -0 0 0 0 0 0 0 0 0 0 0 -0 0 0 -0 -0
0 0 0 0 0 0 -0 0 0 0 0 0 0 -0 -0 -0 -0 -0 -0 0 0 -0 -0 0 0 -0 -0 0 0 0 0 0 0 0 0 0 0 -0 0 0 0 0 0 -0 0
0 0 0 0 0 0 -0 0 0 0 0 -0 -0 -0 -0 -0 -0 0 0 -0 0 0 0 0 0 -0 0 -0 -0 -0 0 0 0 0 0 0 -0 0 0 0 0 0 0 0 -0
0 0 0 0 0 0 -0 0 0 0 0 0 0 0 -0 -0 -0 -0 0 0 0 0 0 0 0 -0 0 0 0 0 0 0 0 0 0 0 0 -0 -0 0 0 -0 0 -0 0
0 0 0 0 0 -0 0 0 0 0 0 0 0 0 0 0 0 0 0 0 0 0 0 0 0 0 0 0 0 0 -0 -0 0 0 0 0 -0 -0 0 0 0 1 1 0 2
0 0 0 0 0 -0 0 0 0 0 0 0 0 0 0 0 0 0 0 0 0 0 0 0 0 0 0 0 0 0 0 -0 -0 0 0 0 0 0 0 0 0 0 1 1 1
0 0 0 0 0 0 0 0 0 0 0 0 0 0 0 0 0 0 0 0 0 0 0 0 0 0 0 0 0 0 0 0 0 0 0 0 0 0 0 0 0 0 1 1 1
0 0 0 0 0 0 0 0 0 0 0 0 0 0 0 0 0 0 0 0 0 0 0 0 0 0 0 0 0 0 0 0 0 0 0 0 0 0 0 0 0 0 0 0 1
0 0 0 0 0 0 0 0 0 0 0 0 0 0 0 0 0 0 0 0 0 0 0 0 0 0 0 0 0 0 0 0 0 0 0 0 0 0 0 0 0 0 0 0 0
Wind_Speed_500mb
21 21 22 21 19 18 17 17 17 16 16 18 17 18 21 27 26 30 37 24 32 23 34 45 44 43 51 16 46 42 5 7 7 13 8 7 10 10 17 39 20 23 47 70 75
23 22 22 22 21 19 18 17 17 16 15 17 17 16 20 27 31 35 21 26 26 24 36 45 51 53 36 26 24 17 10 15 12 10 11 10 22 14 8 28 22 40 52 77 75
25 24 22 21 20 19 18 17 16 16 15 16 17 14 18 23 27 27 24 19 22 21 35 40 47 46 22 18 12 13 12 10 28 38 29 23 15 19 16 2 48 57 76 77 75
26 25 21 19 19 19 18 17 16 16 15 16 16 14 16 18 7 1 21 18 21 25 34 39 35 39 14 10 21 13 27 17 35 38 23 15 30 14 20 14 47 70 72 77 73
27 25 21 17 17 18 17 17 16 15 15 15 15 13 13 14 22 12 3 13 23 27 33 39 49 40 10 7 9 12 13 30 26 53 43 43 26 17 29 44 57 71 62 70 73
27 25 20 16 16 16 16 16 15 14 14 13 14 13 13 13 12 13 16 16 25 25 29 37 47 61 34 11 8 17 24 28 24 24 46 29 14 19 31 63 71 70 65 63 64
27 25 20 14 15 15 15 15 15 14 13 13 13 15 23 39 14 14 18 19 16 20 36 39 53 47 25 16 47 4 12 10 14 13 15 46 4 14 62 69 67 69 67 58 59
27 25 19 13 14 15 14 14 13 12 12 11 12 15 22 21 28 24 7 25 20 21 34 42 40 43 9 24 26 4 6 7 8 17 30 17 14 16 70 68 62 64 70 64 57
27 25 18 13 12 14 13 12 13 12 12 12 10 11 22 15 24 15 13 16 15 16 23 32 41 23 14 9 11 7 6 9 5 20 12 7 10 20 68 65 60 62 64 67 60
28 24 18 11 11 13 13 13 13 13 13 11 13 9 28 24 33 29 29 21 23 26 37 41 17 7 10 11 8 9 7 7 14 11 11 12 13 13 64 62 63 63 64 68 66
28 24 17 10 11 14 16 9 6 6 22 24 15 14 1 13 18 29 30 26 25 25 10 38 4 15 24 13 24 18 4 8 13 14 8 15 7 4 47 50 51 57 61 70 70
28 23 15 10 13 17 20 16 10 6 17 38 48 35 46 34 20 34 32 21 11 11 8 11 14 27 14 28 2 13 11 11 8 10 7 6 10 7 14 8 53 61 63 72 68
29 22 13 9 13 18 24 25 10 23 7 13 41 60 40 15 19 29 28 22 8 9 10 10 27 17 18 4 5 10 4 2 2 8 7 12 10 11 4 11 26 48 66 56 30
29 20 11 10 10 18 24 3 18 17 8 11 15 19 31 21 10 25 23 24 3 17 10 14 34 22 20 6 10 4 6 4 2 8 5 7 8 8 10 13 22 28 52 42 43
30 19 11 20 11 23 12 10 26 3 3 9 16 7 32 21 5 27 34 38 19 23 11 17 7 12 7 12 10 15 7 1 3 1 7 8 10 14 5 7 17 25 57 64 66
30 19 15 24 25 9 7 11 2 9 10 8 20 13 12 16 16 4 44 51 7 7 13 22 38 7 15 6 6 5 6 17 10 7 5 8 11 10 10 13 19 22 35 59 67
30 17 21 29 15 3 13 3 9 5 9 10 14 8 13 12 7 15 12 10 11 3 11 12 12 9 6 7 15 18 14 8 10 10 7 13 10 12 15 14 10 26 37 44 52
25 13 24 32 15 10 11 8 5 10 12 6 12 13 14 10 12 16 15 11 13 8 5 4 16 13 6 13 17 7 15 11 6 4 6 15 12 11 6 38 35 26 20 4 27
13 9 25 35 18 3 7 4 12 12 9 6 9 10 7 10 12 7 18 16 16 19 16 6 13 12 15 10 20 7 4 16 8 5 11 6 10 12 17 22 35 25 22 13 37
7 7 25 38 23 9 8 11 10 9 7 5 17 14 16 12 11 14 17 17 17 22 13 8 5 6 9 9 4 12 9 5 7 6 4 8 9 10 7 10 19 35 31 19 32
4 7 28 44 25 7 5 14 14 33 15 14 11 12 17 15 22 18 24 13 34 17 24 10 5 15 8 7 6 10 9 10 9 9 11 8 12 14 19 19 21 34 63 66 40
4 4 43 53 9 6 6 12 11 32 62 17 16 16 17 16 14 13 19 18 24 17 15 9 10 2 3 6 11 10 11 13 9 12 2 6 9 9 20 26 33 59 51 43 31
17 8 48 54 6 5 13 19 25 28 19 13 7 6 8 18 13 7 9 11 34 10 12 6 4 6 17 16 9 16 8 7 9 5 1 8 9 1 20 19 19 21 28 27 25
6 5 19 48 15 10 8 19 11 33 18 2 6 10 16 10 2 13 8 8 20 17 17 14 7 13 11 13 6 8 8 9 12 9 8 2 5 16 16 18 24 26 42 32 33
3 6 7 5 12 16 6 13 27 15 13 5 11 10 6 9 14 8 9 11 18 15 11 10 7 7 2 8 9 3 3 13 10 5 8 7 17 4 11 15 32 45 37 37 29
6 8 12 10 18 12 12 12 14 23 7 13 4 14 11 5 17 12 19 9 2 6 8 9 3 6 9 6 7 6 15 6 7 9 10 17 12 5 15 31 34 25 31 22 20
9 6 7 10 14 6 5 13 25 9 20 14 10 13 23 13 26 37 26 18 9 7 6 7 8 7 4 5 9 13 17 25 19 19 15 13 4 5 20 37 47 47 42 35 31
Wind_Direction_500mb
312 299 290 281 275 273 270 269 267 266 266 266 266 269 280 285 283 277 258 226 255 307 316 311 310 317 324 206 211 204 184 226 224 153 219 177 123 112 131 141 161 205 162 159 162
320 304 289 281 274 271 270 270 269 267 264 263 265 268 281 293 297 263 205 230 264 307 308 311 311 324 325 300 161 149 149 213 165 151 190 104 87 92 66 147 106 114 149 153 164
325 312 293 277 270 266 265 266 267 266 263 260 262 266 278 299 310 259 207 237 281 302 301 301 302 317 291 238 249 162 160 191 152 180 150 112 114 135 106 110 144 139 152 162 171
329 320 302 279 265 260 258 259 259 260 258 257 258 259 273 296 263 6 194 259 275 289 288 291 304 319 316 342 165 100 157 138 151 167 147 155 153 141 173 200 159 154 165 169 170
333 324 311 283 260 253 251 253 254 255 254 253 255 257 273 268 250 137 29 279 276 281 277 294 302 307 265 261 121 126 176 156 176 172 157 151 167 152 129 161 157 156 164 176 182
335 329 316 288 258 246 245 246 249 249 249 249 249 259 264 265 207 218 254 273 267 272 278 288 296 309 263 346 288 180 171 173 202 196 158 153 185 150 153 160 159 164 169 176 189
338 331 319 291 257 240 237 239 243 242 242 243 244 257 257 234 182 213 250 270 270 269 283 303 300 311 338 337 339 235 128 215 227 205 134 137 189 187 160 164 165 172 175 177 192
338 332 320 289 254 238 230 233 236 235 234 233 236 264 259 235 252 258 221 262 264 269 278 289 300 309 346 318 343 166 62 131 249 178 163 144 232 176 166 166 175 177 181 185 193
337 331 319 287 248 232 223 224 227 221 220 218 237 248 263 220 226 190 245 269 273 251 269 291 303 297 327 70 355 344 230 185 205 196 167 122 227 166 174 175 176 180 186 192 192
336 330 319 280 238 221 214 211 218 209 209 208 220 278 245 221 205 232 218 228 269 274 302 299 304 13 341 78 244 259 229 241 172 227 176 188 219 165 180 183 179 183 189 195 198
335 329 318 270 225 209 205 190 203 225 224 209 215 214 293 219 278 232 208 219 241 279 277 299 35 253 254 215 246 221 205 294 194 213 126 222 271 342 186 192 178 186 190 197 199
333 328 313 253 212 210 206 204 152 36 284 240 241 259 261 272 302 233 204 216 221 243 355 355 271 256 256 273 275 21 18 8 23 165 151 192 281 352 32 118 185 183 189 199 199
332 324 305 235 208 217 224 195 162 330 259 280 229 238 254 315 229 217 196 217 217 256 270 177 259 290 256 324 17 356 122 0 213 353 10 96 350 355 355 73 110 188 192 198 191
330 319 290 210 205 211 194 128 275 304 49 268 190 250 239 247 275 213 218 214 265 226 245 240 260 239 259 189 111 24 279 132 86 66 228 65 258 319 311 342 83 139 176 159 158
327 310 262 199 194 190 142 35 341 268 33 191 189 215 211 192 162 208 218 210 226 235 109 246 296 309 236 205 146 218 238 137 277 359 35 341 81 265 69 14 89 100 138 159 166
324 300 241 216 223 160 282 307 117 51 256 186 151 199 166 207 235 271 200 213 269 275 274 265 276 254 209 193 174 345 10 24 42 94 40 234 118 285 26 319 61 85 136 168 186
320 282 222 206 181 176 313 317 53 155 295 169 169 155 175 206 217 176 175 186 197 156 285 307 289 276 217 45 355 68 56 352 347 10 230 299 76 224 35 70 70 39 8 183 199
314 252 212 191 180 358 16 68 200 244 241 222 141 160 184 151 243 186 134 201 254 122 51 216 315 191 205 169 190 200 148 149 253 217 226 11 346 301 100 64 54 54 10 189 224
308 239 209 172 190 349 11 108 215 219 279 123 84 136 245 212 158 139 174 206 224 172 175 164 274 301 166 169 132 271 207 188 148 72 86 270 278 310 19 38 29 71 82 203 210
327 279 203 179 184 193 76 224 242 224 336 190 185 167 205 196 156 154 182 220 235 203 154 236 315 310 282 118 185 159 186 29 18 179 100 280 285 231 112 133 61 8 18 288 224
356 291 161 176 172 167 189 238 271 271 280 188 243 166 209 179 177 191 197 258 210 235 158 154 119 298 21 18 226 349 20 24 108 109 154 179 254 214 186 166 133 140 209 234 210
347 7 166 176 122 187 189 228 297 295 308 270 188 189 169 204 175 175 207 224 215 154 139 193 134 127 218 267 127 145 108 112 107 301 177 161 279 254 213 176 182 198 211 218 158
341 301 172 175 153 251 272 266 275 285 287 283 256 136 195 186 156 166 131 352 123 101 146 175 23 40 351 350 13 75 65 143 126 90 111 131 265 29 45 31 125 134 171 162 144
329 15 163 205 231 163 291 289 292 315 290 268 327 56 7 52 21 164 126 66 74 91 94 87 86 140 172 217 216 2 61 66 97 75 289 298 52 26 88 71 81 137 150 142 142
252 267 26 251 271 257 144 302 305 306 301 19 20 22 41 39 47 39 56 58 31 63 59 95 96 87 233 83 84 222 353 61 86 190 113 302 102 116 133 131 107 110 129 133 135
357 8 338 289 269 237 188 248 246 285 254 299 120 12 60 134 145 106 99 83 94 18 71 3 135 112 53 77 144 35 345 13 66 149 81 114 74 295 110 83 59 52 83 135 169
349 289 314 304 323 58 222 274 283 334 315 330 121 93 60 352 135 118 117 139 149 150 101 78 104 68 337 335 67 28 343 78 63 34 118 101 129 65 63 69 62 66 50 41 36
Wind_Speed_850mb
21 21 22 21 19 18 17 17 17 16 16 18 17 18 21 27 26 30 37 24 32 23 34 45 44 43 51 16 46 42 5 7 7 13 8 7 10 10 17 39 20 23 47 70 75
23 22 22 22 21 19 18 17 17 16 15 17 17 16 20 27 31 35 21 26 26 24 36 45 51 53 36 26 24 17 10 15 12 10 11 10 22 14 8 28 22 40 52 77 75
25 24 22 21 20 19 18 17 16 16 15 16 17 14 18 23 27 27 24 19 22 21 35 40 47 46 22 18 12 13 12 10 28 38 29 23 15 19 16 2 48 57 76 77 75
26 25 21 19 19 19 18 17 16 16 15 16 16 14 16 18 7 1 21 18 21 25 34 39 35 39 14 10 21 13 27 17 35 38 23 15 30 14 20 14 47 70 72 77 73
27 25 21 17 17 18 17 17 16 15 15 15 15 13 13 14 22 12 3 13 23 27 33 39 49 40 10 7 9 12 13 30 26 53 43 43 26 17 29 44 57 71 62 70 73
27 25 20 16 16 16 16 16 15 14 14 13 14 13 13 13 12 13 16 16 25 25 29 37 47 61 34 11 8 17 24 28 24 24 46 29 14 19 31 63 71 70 65 63 64
27 25 20 14 15 15 15 15 15 14 13 13 13 15 23 39 14 14 18 19 16 20 36 39 53 47 25 16 47 4 12 10 14 13 15 46 4 14 62 69 67 69 67 58 59
27 25 19 13 14 15 14 14 13 12 12 11 12 15 22 21 28 24 7 25 20 21 34 42 40 43 9 24 26 4 6 7 8 17 30 17 14 16 70 68 62 64 70 64 57
27 25 18 13 12 14 13 12 13 12 12 12 10 11 22 15 24 15 13 16 15 16 23 32 41 23 14 9 11 7 6 9 5 20 12 7 10 20 68 65 60 62 64 67 60
28 24 18 11 11 13 13 13 13 13 13 11 13 9 28 24 33 29 29 21 23 26 37 41 17 7 10 11 8 9 7 7 14 11 11 12 13 13 64 62 63 63 64 68 66
28 24 17 10 11 14 16 9 6 6 22 24 15 14 1 13 18 29 30 26 25 25 10 38 4 15 24 13 24 18 4 8 13 14 8 15 7 4 47 50 51 57 61 70 70
28 23 15 10 13 17 20 16 10 6 17 38 48 35 46 34 20 34 32 21 11 11 8 11 14 27 14 28 2 13 11 11 8 10 7 6 10 7 14 8 53 61 63 72 68
29 22 13 9 13 18 24 25 10 23 7 13 41 60 40 15 19 29 28 22 8 9 10 10 27 17 18 4 5 10 4 2 2 8 7 12 10 11 4 11 26 48 66 56 30
29 20 11 10 10 18 24 3 18 17 8 11 15 19 31 21 10 25 23 24 3 17 10 14 34 22 20 6 10 4 6 4 2 8 5 7 8 8 10 13 22 28 52 42 43
30 19 11 20 11 23 12 10 26 3 3 9 16 7 32 21 5 27 34 38 19 23 11 17 7 12 7 12 10 15 7 1 3 1 7 8 10 14 5 7 17 25 57 64 66
30 19 15 24 25 9 7 11 2 9 10 8 20 13 12 16 16 4 44 51 7 7 13 22 38 7 15 6 6 5 6 17 10 7 5 8 11 10 10 13 19 22 35 59 67
30 17 21 29 15 3 13 3 9 5 9 10 14 8 13 12 7 15 12 10 11 3 11 12 12 9 6 7 15 18 14 8 10 10 7 13 10 12 15 14 10 26 37 44 52
25 13 24 32 15 10 11 8 5 10 12 6 12 13 14 10 12 16 15 11 13 8 5 4 16 13 6 13 17 7 15 11 6 4 6 15 12 11 6 38 35 26 20 4 27
13 9 25 35 18 3 7 4 12 12 9 6 9 10 7 10 12 7 18 16 16 19 16 6 13 12 15 10 20 7 4 16 8 5 11 6 10 12 17 22 35 25 22 13 37
7 7 25 38 23 9 8 11 10 9 7 5 17 14 16 12 11 14 17 17 17 22 13 8 5 6 9 9 4 12 9 5 7 6 4 8 9 10 7 10 19 35 31 19 32
4 7 28 44 25 7 5 14 14 33 15 14 11 12 17 15 22 18 24 13 34 17 24 10 5 15 8 7 6 10 9 10 9 9 11 8 12 14 19 19 21 34 63 66 40
4 4 43 53 9 6 6 12 11 32 62 17 16 16 17 16 14 13 19 18 24 17 15 9 10 2 3 6 11 10 11 13 9 12 2 6 9 9 20 26 33 59 51 43 31
17 8 48 54 6 5 13 19 25 28 19 13 7 6 8 18 13 7 9 11 34 10 12 6 4 6 17 16 9 16 8 7 9 5 1 8 9 1 20 19 19 21 28 27 25
6 5 19 48 15 10 8 19 11 33 18 2 6 10 16 10 2 13 8 8 20 17 17 14 7 13 11 13 6 8 8 9 12 9 8 2 5 16 16 18 24 26 42 32 33
3 6 7 5 12 16 6 13 27 15 13 5 11 10 6 9 14 8 9 11 18 15 11 10 7 7 2 8 9 3 3 13 10 5 8 7 17 4 11 15 32 45 37 37 29
6 8 12 10 18 12 12 12 14 23 7 13 4 14 11 5 17 12 19 9 2 6 8 9 3 6 9 6 7 6 15 6 7 9 10 17 12 5 15 31 34 25 31 22 20
9 6 7 10 14 6 5 13 25 9 20 14 10 13 23 13 26 37 26 18 9 7 6 7 8 7 4 5 9 13 17 25 19 19 15 13 4 5 20 37 47 47 42 35 31
Wind_Direction_850mb
312 299 290 281 275 273 270 269 267 266 266 266 266 269 280 285 283 277 258 226 255 307 316 311 310 317 324 206 211 204 184 226 224 153 219 177 123 112 131 141 161 205 162 159 162
320 304 289 281 274 271 270 270 269 267 264 263 265 268 281 293 297 263 205 230 264 307 308 311 311 324 325 300 161 149 149 213 165 151 190 104 87 92 66 147 106 114 149 153 164
325 312 293 277 270 266 265 266 267 266 263 260 262 266 278 299 310 259 207 237 281 302 301 301 302 317 291 238 249 162 160 191 152 180 150 112 114 135 106 110 144 139 152 162 171
329 320 302 279 265 260 258 259 259 260 258 257 258 259 273 296 263 6 194 259 275 289 288 291 304 319 316 342 165 100 157 138 151 167 147 155 153 141 173 200 159 154 165 169 170
333 324 311 283 260 253 251 253 254 255 254 253 255 257 273 268 250 137 29 279 276 281 277 294 302 307 265 261 121 126 176 156 176 172 157 151 167 152 129 161 157 156 164 176 182
335 329 316 288 258 246 245 246 249 249 249 249 249 259 264 265 207 218 254 273 267 272 278 288 296 309 263 346 288 180 171 173 202 196 158 153 185 150 153 160 159 164 169 176 189
338 331 319 291 257 240 237 239 243 242 242 243 244 257 257 234 182 213 250 270 270 269 283 303 300 311 338 337 339 235 128 215 227 205 134 137 189 187 160 164 165 172 175 177 192
338 332 320 289 254 238 230 233 236 235 234 233 236 264 259 235 252 258 221 262 264 269 278 289 300 309 346 318 343 166 62 131 249 178 163 144 232 176 166 166 175 177 181 185 193
337 331 319 287 248 232 223 224 227 221 220 218 237 248 263 220 226 190 245 269 273 251 269 291 303 297 327 70 355 344 230 185 205 196 167 122 227 166 174 175 176 180 186 192 192
336 330 319 280 238 221 214 211 218 209 209 208 220 278 245 221 205 232 218 228 269 274 302 299 304 13 341 78 244 259 229 241 172 227 176 188 219 165 180 183 179 183 189 195 198
335 329 318 270 225 209 205 190 203 225 224 209 215 214 293 219 278 232 208 219 241 279 277 299 35 253 254 215 246 221 205 294 194 213 126 222 271 342 186 192 178 186 190 197 199
333 328 313 253 212 210 206 204 152 36 284 240 241 259 261 272 302 233 204 216 221 243 355 355 271 256 256 273 275 21 18 8 23 165 151 192 281 352 32 118 185 183 189 199 199
332 324 305 235 208 217 224 195 162 330 259 280 229 238 254 315 229 217 196 217 217 256 270 177 259 290 256 324 17 356 122 0 213 353 10 96 350 355 355 73 110 188 192 198 191
330 319 290 210 205 211 194 128 275 304 49 268 190 250 239 247 275 213 218 214 265 226 245 240 260 239 259 189 111 24 279 132 86 66 228 65 258 319 311 342 83 139 176 159 158
327 310 262 199 194 190 142 35 341 268 33 191 189 215 211 192 162 208 218 210 226 235 109 246 296 309 236 205 146 218 238 137 277 359 35 341 81 265 69 14 89 100 138 159 166
324 300 241 216 223 160 282 307 117 51 256 186 151 199 166 207 235 271 200 213 269 275 274 265 276 254 209 193 174 345 10 24 42 94 40 234 118 285 26 319 61 85 136 168 186
320 282 222 206 181 176 313 317 53 155 295 169 169 155 175 206 217 176 175 186 197 156 285 307 289 276 217 45 355 68 56 352 347 10 230 299 76 224 35 70 70 39 8 183 199
314 252 212 191 180 358 16 68 200 244 241 222 141 160 184 151 243 186 134 201 254 122 51 216 315 191 205 169 190 200 148 149 253 217 226 11 346 301 100 64 54 54 10 189 224
308 239 209 172 190 349 11 108 215 219 279 123 84 136 245 212 158 139 174 206 224 172 175 164 274 301 166 169 132 271 207 188 148 72 86 270 278 310 19 38 29 71 82 203 210
327 279 203 179 184 193 76 224 242 224 336 190 185 167 205 196 156 154 182 220 235 203 154 236 315 310 282 118 185 159 186 29 18 179 100 280 285 231 112 133 61 8 18 288 224
356 291 161 176 172 167 189 238 271 271 280 188 243 166 209 179 177 191 197 258 210 235 158 154 119 298 21 18 226 349 20 24 108 109 154 179 254 214 186 166 133 140 209 234 210
347 7 166 176 122 187 189 228 297 295 308 270 188 189 169 204 175 175 207 224 215 154 139 193 134 127 218 267 127 145 108 112 107 301 177 161 279 254 213 176 182 198 211 218 158
341 301 172 175 153 251 272 266 275 285 287 283 256 136 195 186 156 166 131 352 123 101 146 175 23 40 351 350 13 75 65 143 126 90 111 131 265 29 45 31 125 134 171 162 144
329 15 163 205 231 163 291 289 292 315 290 268 327 56 7 52 21 164 126 66 74 91 94 87 86 140 172 217 216 2 61 66 97 75 289 298 52 26 88 71 81 137 150 142 142
252 267 26 251 271 257 144 302 305 306 301 19 20 22 41 39 47 39 56 58 31 63 59 95 96 87 233 83 84 222 353 61 86 190 113 302 102 116 133 131 107 110 129 133 135
357 8 338 289 269 237 188 248 246 285 254 299 120 12 60 134 145 106 99 83 94 18 71 3 135 112 53 77 144 35 345 13 66 149 81 114 74 295 110 83 59 52 83 135 169
349 289 314 304 323 58 222 274 283 334 315 330 121 93 60 352 135 118 117 139 149 150 101 78 104 68 337 335 67 28 343 78 63 34 118 101 129 65 63 69 62 66 50 41 36